Location: Ford County Road and Bridge Department
(37.7686°N, 99.9762°W)
Time: 15:23:34
(UTC+00:00)

SKYMED 2 - Pass Details

Date: 18 January 2020
Orbit: 621 x 623 km, 97.9° (Epoch: 27 February)

Event Time Altitude Azimuth Distance (km) Brightness Sun altitude
Rises 00:57:51 0° 8° (N) 2,910 6.8 -14.0°
Reaches altitude 10° 01:00:04 10° 5° (N) 1,999 6.0 -14.4°
Maximum altitude 01:04:21 62° 285° (WNW) 704 4.1 -15.2°
Drops below altitude 10° 01:08:37 10° 205° (SSW) 1,984 6.7 -16.0°
Sets 01:10:49 0° 202° (SSW) 2,885 7.5 -16.5°
